When you browse on this site, cookies collect data to enhance your experience and personalize the content and advertising you see.
Visit our Privacy Policy to learn more. By continuing to use the site, you agree to this use of cookies and data.
  • In Netherlands
  • List of Countries
  • For 7 days
  • Water Temperature
  • Satellite Maps
  • Weather Map
  • Weather Widgets
  • user-avatar
    Login

    Hourly Weather Salzburg

    Today, 16 January, Wednesday

    Time Temperature Precipitation Wind Pressure Humidity
    00:00 -8°C° 0 mm 1 mps 623 mmHg 84%
    01:00 -7°C° 0 mm 1 mps 623 mmHg 81%
    02:00 -8°C° 0 mm 1 mps 622 mmHg 80%
    03:00 -8°C° 0 mm 1 mps 622 mmHg 79%
    04:00 -9°C° 0 mm 1 mps 621 mmHg 78%
    05:00 -9°C° 0 mm 1 mps 621 mmHg 77%
    06:00 -9°C° 0 mm 1 mps 621 mmHg 75%
    07:00 -9°C° 0 mm 2 mps 621 mmHg 72%
    08:00 -8°C° 0 mm 2 mps 622 mmHg 74%
    09:00 -4°C° 0 mm 1 mps 622 mmHg 75%
    10:00 -3°C° 0 mm 1 mps 622 mmHg 77%
    11:00 -2°C° 0 mm 1 mps 622 mmHg 83%
    12:00 0°C° 0 mm 1 mps 622 mmHg 90%
    13:00 +1°C° 0 mm 1 mps 622 mmHg 97%
    14:00 0°C° 0 mm 1 mps 622 mmHg 90%
    15:00 0°C° 0 mm 1 mps 622 mmHg 84%
    16:00 0°C° 0 mm 1 mps 622 mmHg 78%
    17:00 -3°C° 0 mm 2 mps 621 mmHg 76%
    18:00 -5°C° 0 mm 2 mps 621 mmHg 74%
    19:00 -6°C° 0 mm 2 mps 620 mmHg 72%
    20:00 -6°C° 0 mm 2 mps 620 mmHg 71%
    21:00 -7°C° 0 mm 2 mps 620 mmHg 70%
    22:00 -7°C° 0 mm 2 mps 619 mmHg 70%
    23:00 -7°C° 0 mm 2 mps 619 mmHg 70%

    Tomorrow, 17 January, Thursday

    Time Temperature Precipitation Wind Pressure Humidity
    00:00 -7°C° 0 mm 2 mps 619 mmHg 71%
    01:00 -7°C° 0 mm 2 mps 619 mmHg 71%
    02:00 -7°C° 0 mm 2 mps 619 mmHg 72%
    03:00 -7°C° 0 mm 2 mps 618 mmHg 74%
    04:00 -7°C° 0 mm 2 mps 618 mmHg 75%
    05:00 -8°C° 0 mm 2 mps 618 mmHg 76%
    06:00 -8°C° 0 mm 2 mps 618 mmHg 78%
    07:00 -8°C° 0 mm 2 mps 618 mmHg 80%
    08:00 -7°C° 0 mm 2 mps 618 mmHg 82%
    09:00 -6°C° 0 mm 2 mps 618 mmHg 84%
    10:00 -5°C° 0 mm 2 mps 618 mmHg 86%
    11:00 -4°C° 0 mm 2 mps 618 mmHg 90%
    12:00 -3°C° 0 mm 2 mps 618 mmHg 93%
    13:00 0°C° 0 mm 1 mps 618 mmHg 97%
    14:00 0°C° 0 mm 1 mps 618 mmHg 95%
    15:00 -1°C° 0 mm 1 mps 618 mmHg 93%
    16:00 -1°C° 0 mm 1 mps 618 mmHg 91%
    17:00 -1°C° 0.6 mm 1 mps 618 mmHg 92%
    18:00 -2°C° 0.6 mm 1 mps 618 mmHg 93%
    19:00 -3°C° 0.6 mm 1 mps 618 mmHg 95%
    20:00 -3°C° 1.3 mm 1 mps 618 mmHg 95%
    21:00 -3°C° 1.3 mm 1 mps 618 mmHg 96%
    22:00 -5°C° 1.3 mm 2 mps 618 mmHg 96%
    23:00 -6°C° 1.2 mm 2 mps 618 mmHg 96%

    Day after tomorrow, 18 January, Friday

    Time Temperature Precipitation Wind Pressure Humidity
    00:00 -4°C° 1.2 mm 1 mps 619 mmHg 96%
    01:00 -6°C° 1.2 mm 1 mps 619 mmHg 97%
    02:00 -6°C° 0.8 mm 1 mps 619 mmHg 96%
    03:00 -6°C° 0.8 mm 1 mps 619 mmHg 96%
    04:00 -7°C° 0.8 mm 1 mps 619 mmHg 96%
    05:00 -7°C° 0.4 mm 1 mps 619 mmHg 96%
    06:00 -8°C° 0.4 mm 1 mps 620 mmHg 96%
    07:00 -8°C° 0.4 mm 1 mps 620 mmHg 96%
    08:00 -8°C° 0.2 mm 1 mps 621 mmHg 95%
    09:00 -8°C° 0.2 mm 1 mps 621 mmHg 95%
    10:00 -8°C° 0.2 mm 1 mps 622 mmHg 94%
    11:00 -7°C° 0.1 mm 1 mps 622 mmHg 92%
    12:00 -7°C° 0.1 mm 1 mps 622 mmHg 90%
    13:00 -7°C° 0.1 mm 1 mps 622 mmHg 88%
    14:00 -8°C° 0 mm 1 mps 622 mmHg 89%
    15:00 -8°C° 0 mm 1 mps 622 mmHg 89%
    16:00 -9°C° 0 mm 0 mps 621 mmHg 90%
    17:00 -10°C° 0 mm 1 mps 621 mmHg 90%
    18:00 -12°C° 0 mm 1 mps 620 mmHg 90%
    19:00 -13°C° 0 mm 1 mps 620 mmHg 90%
    20:00 -13°C° 0 mm 1 mps 620 mmHg 88%
    21:00 -13°C° 0 mm 1 mps 620 mmHg 87%
    22:00 -15°C° 0 mm 2 mps 620 mmHg 85%
    23:00 -15°C° 0 mm 2 mps 620 mmHg 85%

    19 January, Saturday

    Time Temperature Precipitation Wind Pressure Humidity
    00:00 -15°C° 0 mm 2 mps 620 mmHg 84%
    01:00 -14°C° 0 mm 2 mps 620 mmHg 84%
    02:00 -14°C° 0 mm 2 mps 620 mmHg 84%
    03:00 -14°C° 0 mm 2 mps 620 mmHg 84%
    04:00 -14°C° 0 mm 2 mps 620 mmHg 85%
    05:00 -13°C° 0 mm 2 mps 620 mmHg 85%
    06:00 -13°C° 0 mm 2 mps 619 mmHg 85%
    07:00 -13°C° 0 mm 2 mps 619 mmHg 85%
    08:00 -10°C° 0 mm 1 mps 620 mmHg 86%
    09:00 -9°C° 0 mm 1 mps 620 mmHg 86%
    10:00 -7°C° 0 mm 1 mps 620 mmHg 87%
    11:00 -6°C° 0 mm 1 mps 621 mmHg 87%
    12:00 -5°C° 0 mm 0 mps 621 mmHg 87%
    13:00 -4°C° 0 mm 0 mps 621 mmHg 87%
    14:00 -4°C° 0 mm 0 mps 620 mmHg 88%
    15:00 -5°C° 0 mm 0 mps 620 mmHg 90%
    16:00 -6°C° 0 mm 0 mps 619 mmHg 92%
    17:00 -7°C° 0 mm 1 mps 619 mmHg 91%
    18:00 -8°C° 0 mm 1 mps 618 mmHg 90%
    19:00 -10°C° 0 mm 1 mps 618 mmHg 90%
    20:00 -10°C° 0 mm 1 mps 618 mmHg 88%
    21:00 -12°C° 0 mm 2 mps 618 mmHg 86%
    22:00 -13°C° 0 mm 2 mps 618 mmHg 85%
    23:00 -13°C° 0 mm 2 mps 618 mmHg 83%

    20 January, Sunday

    Time Temperature Precipitation Wind Pressure Humidity
    00:00 -13°C° 0 mm 2 mps 618 mmHg 82%
    01:00 -13°C° 0 mm 2 mps 618 mmHg 81%
    02:00 -13°C° 0 mm 2 mps 618 mmHg 79%
    03:00 -13°C° 0 mm 2 mps 618 mmHg 78%
    04:00 -13°C° 0 mm 2 mps 617 mmHg 77%
    05:00 -13°C° 0 mm 2 mps 618 mmHg 76%
    06:00 -13°C° 0 mm 2 mps 618 mmHg 75%
    07:00 -13°C° 0 mm 2 mps 618 mmHg 74%
    08:00 -9°C° 0 mm 1 mps 618 mmHg 75%
    09:00 -8°C° 0 mm 1 mps 619 mmHg 77%
    10:00 -6°C° 0 mm 1 mps 620 mmHg 79%
    11:00 -4°C° 0 mm 1 mps 620 mmHg 80%
    12:00 -3°C° 0 mm 1 mps 620 mmHg 81%
    13:00 -2°C° 0 mm 1 mps 621 mmHg 82%
    14:00 -3°C° 0 mm 1 mps 620 mmHg 85%
    15:00 -4°C° 0 mm 1 mps 620 mmHg 89%
    16:00 -6°C° 0 mm 1 mps 620 mmHg 92%
    17:00 -7°C° 0 mm 1 mps 620 mmHg 92%
    18:00 -8°C° 0 mm 0 mps 620 mmHg 92%
    19:00 -9°C° 0 mm 0 mps 620 mmHg 92%
    20:00 -9°C° 0.1 mm 1 mps 620 mmHg 91%
    21:00 -9°C° 0.1 mm 1 mps 620 mmHg 90%
    22:00 -9°C° 0.1 mm 1 mps 621 mmHg 89%
    23:00 -9°C° 0.1 mm 1 mps 621 mmHg 90%

    21 January, Monday

    Time Temperature Precipitation Wind Pressure Humidity
    00:00 -9°C° 0.1 mm 1 mps 621 mmHg 90%
    01:00 -9°C° 0.1 mm 1 mps 621 mmHg 91%
    02:00 -9°C° 0.2 mm 1 mps 621 mmHg 91%
    03:00 -9°C° 0.2 mm 1 mps 621 mmHg 92%
    04:00 -9°C° 0.2 mm 0 mps 621 mmHg 92%
    05:00 -9°C° 0.2 mm 0 mps 622 mmHg 93%
    06:00 -9°C° 0.2 mm 0 mps 622 mmHg 93%
    07:00 -9°C° 0.2 mm 0 mps 622 mmHg 94%
    08:00 -8°C° 0.2 mm 0 mps 623 mmHg 93%
    09:00 -7°C° 0.2 mm 0 mps 623 mmHg 93%
    10:00 -7°C° 0.2 mm 0 mps 624 mmHg 93%
    11:00 -6°C° 0.2 mm 0 mps 623 mmHg 93%
    12:00 -4°C° 0.2 mm 1 mps 623 mmHg 92%
    13:00 -4°C° 0.2 mm 1 mps 623 mmHg 92%
    14:00 -4°C° 0.2 mm 1 mps 623 mmHg 93%
    15:00 -6°C° 0.2 mm 1 mps 623 mmHg 94%
    16:00 -6°C° 0.2 mm 1 mps 622 mmHg 95%
    17:00 -7°C° 0.1 mm 1 mps 622 mmHg 95%
    18:00 -8°C° 0.1 mm 1 mps 622 mmHg 96%
    19:00 -8°C° 0.1 mm 0 mps 622 mmHg 97%
    20:00 -9°C° 0.1 mm 0 mps 622 mmHg 96%
    21:00 -9°C° 0.1 mm 0 mps 622 mmHg 96%
    22:00 -9°C° 0.1 mm 0 mps 622 mmHg 95%
    23:00 -10°C° 0.2 mm 0 mps 621 mmHg 95%
    Show more